Location: Brivio
(45.7333°N, 9.4500°E)
Time: 03:08:48
(UTC+00:00)

YAOGAN 6 - Pass Details

Date: 18 October 2019
Orbit: 465 x 506 km, 97.0° (Epoch: 12 November)

Event Time Altitude Azimuth Distance (km) Brightness Sun altitude
Rises 17:03:45 0° 147° (SSE) 2,586 6.0 -6.3°
Reaches altitude 10° 17:05:56 10° 139° (SE) 1,702 5.0 -6.7°
Maximum altitude 17:09:18 36° 72° (ENE) 801 3.2 -7.3°
Drops below altitude 10° 17:12:41 10° 4° (N) 1,696 5.2 -7.8°
Sets 17:14:51 0° 356° (N) 2,575 6.2 -8.2°
